GFSMA_con_sbcape_060.txt.gz
CAPE
139 53 82 106 125 171 155 51 34 21 0 0 0 0 0 0 3 6 12 23 39 43 25 24 11 5 11 12 8 5 3 0 0 2 0 0 0 0 0 0 0 0 0
133 54 40 1 11 90 122 40 22 19 0 0 0 0 0 0 1 5 6 14 26 54 68 38 26 18 16 5 6 2 2 1 0 1 0 0 0 0 0 0 0 0 0
145 90 27 20 5 17 13 8 8 9 3 1 0 0 0 0 0 0 8 12 7 12 39 83 49 23 23 15 2 1 0 0 0 0 0 0 0 0 0 0 0 0 0
117 89 40 29 8 0 0 5 3 9 3 0 0 0 0 0 0 0 0 4 12 6 2 44 68 74 40 8 6 3 1 0 0 0 2 0 0 0 0 0 0 0 0
106 82 50 97 50 0 0 0 0 0 0 0 0 0 0 0 0 0 0 0 0 1 5 0 12 43 60 50 19 13 12 7 0 0 0 0 0 0 0 0 0 0 0
108 76 58 118 84 28 22 10 0 0 0 0 0 0 0 0 0 0 0 0 0 0 0 1 0 9 33 67 48 25 34 39 12 1 0 0 0 0 0 0 0 0 0
142 138 119 132 108 99 94 76 32 17 0 0 0 0 0 0 0 0 0 0 0 0 0 0 0 2 12 64 121 56 45 57 60 31 7 0 0 0 0 0 0 0 0
132 134 150 119 106 147 156 130 94 71 29 0 2 13 6 0 0 0 0 0 0 0 0 0 0 0 0 44 39 101 76 55 34 47 53 25 3 4 0 0 0 0 0
198 118 139 174 167 153 196 207 169 160 133 38 11 130 151 105 106 0 0 0 0 0 0 0 0 0 0 0 0 33 54 61 69 1 12 75 54 26 17 16 8 13 4
162 157 131 192 251 236 203 269 268 242 266 235 19 1 74 68 109 57 0 0 0 0 0 0 0 0 0 0 0 0 0 0 0 20 14 0 0 14 66 59 57 41 37
114 146 167 231 286 285 261 293 244 217 245 264 196 147 11 0 0 0 0 0 0 0 0 0 0 0 0 0 0 0 0 0 0 0 0 0 0 0 4 49 70 67 65
83 106 142 246 279 208 119 54 156 296 306 238 210 190 102 13 0 0 0 0 0 0 0 0 0 0 0 0 0 0 0 0 0 0 0 0 0 0 0 2 35 62 67
37 41 77 197 135 89 70 50 181 382 414 312 235 178 127 59 55 0 0 0 2 0 0 0 0 0 0 0 0 0 0 0 0 0 0 0 0 0 0 0 0 8 34
16 1 0 84 89 49 75 198 162 141 186 235 272 320 254 203 110 0 0 0 0 1 4 0 0 0 0 0 0 0 0 0 0 0 0 0 0 0 0 0 0 0 0
0 0 0 7 80 80 97 104 176 96 244 288 241 278 329 262 93 10 0 0 0 1 2 0 0 0 0 0 0 0 0 0 0 0 0 0 0 0 0 0 0 0 0
17 2 0 13 23 34 46 60 127 137 237 335 274 218 232 167 181 13 4 0 0 11 0 3 0 0 0 0 0 0 0 0 0 0 0 0 0 0 0 0 0 0 0
9 8 7 9 15 26 33 84 70 61 151 264 376 370 187 39 4 0 1 0 0 0 0 0 0 0 0 0 0 0 0 0 0 0 0 0 0 0 0 0 0 0 0
39 18 20 24 17 30 78 84 132 27 154 276 285 175 78 1 1 0 0 0 0 0 0 0 0 0 0 0 0 0 0 0 0 0 0 0 0 0 0 0 0 0 0
14 11 18 33 55 57 47 32 38 99 228 75 23 35 3 0 0 0 0 2 1 0 0 0 0 0 0 0 0 0 0 1 0 0 0 0 0 0 0 0 0 0 0
9 10 15 14 10 18 6 30 27 77 27 1 0 0 0 1 0 0 0 0 0 0 0 0 0 0 0 0 0 0 1 0 0 0 0 0 0 0 0 0 0 0 0
1 0 1 5 13 9 6 71 25 24 7 2 5 0 0 0 0 0 0 0 0 0 1 0 0 0 0 0 0 0 0 0 0 0 0 0 0 0 0 0 0 0 0
0 1 0 3 9 11 0 0 0 180 10 3 4 0 0 1 0 0 0 0 0 0 0 0 0 0 0 0 0 0 0 0 0 0 0 0 0 0 0 0 0 0 0
19 12 40 25 72 125 6 0 0 11 1 1 0 0 0 0 0 0 0 0 0 0 0 0 0 0 0 0 0 0 0 0 0 0 0 0 0 0 0 0 0 0 0
86 127 129 107 25 22 5 0 0 0 0 0 0 0 0 0 0 0 0 0 0 0 0 0 0 0 0 0 0 0 0 0 0 0 0 0 0 0 0 0 0 0 0
120 164 139 131 162 6 1 1 1 0 0 0 0 0 0 0 2 0 0 0 0 0 0 0 0 0 0 0 0 0 0 0 0 0 0 0 0 0 0 0 0 0 0
41 0 0 0 0 0 0 0 0 1 1 2 0 2 3 5 1 0 0 0 1 0 0 0 0 0 0 0 0 0 0 0 0 0 0 0 0 0 0 0 0 0 8

GFSMA_con_sbcape_063.txt.gz
CAPE
282 251 331 266 68 107 32 0 18 3 1 1 1 4 11 28 17 5 15 34 39 37 13 16 17 12 7 3 1 1 0 2 1 0 0 0 0 0 0 0 0 0 0
203 261 298 278 206 209 132 40 50 12 2 1 0 2 5 10 21 13 10 24 32 52 35 12 13 17 10 6 2 2 1 0 3 0 0 0 0 0 0 0 0 0 0
238 309 334 397 309 264 241 147 39 17 2 0 0 0 1 6 10 24 4 9 11 21 36 49 24 13 20 15 6 3 2 0 0 2 0 0 0 0 0 0 0 0 0
206 271 237 232 194 239 160 82 20 14 7 0 0 0 0 1 2 6 25 17 2 11 1 40 51 45 35 21 12 5 0 0 1 1 1 0 0 0 0 0 0 0 0
180 217 180 220 218 139 169 117 104 69 32 2 0 0 0 0 0 0 1 1 19 14 7 4 9 34 53 32 14 12 8 3 1 1 2 0 0 0 0 0 0 0 0
140 162 167 207 90 73 55 101 108 47 24 0 0 0 0 0 0 0 0 0 0 0 3 43 3 9 12 53 49 16 21 20 12 4 2 2 0 0 0 0 0 0 0
144 183 192 261 264 128 97 213 78 54 0 0 0 0 0 0 0 0 0 0 0 0 0 0 21 0 0 17 64 33 35 38 40 21 8 6 7 0 0 0 0 0 0
208 258 270 266 269 247 288 237 240 81 24 6 0 0 0 0 0 0 0 0 0 0 0 0 0 0 28 34 19 43 40 41 32 64 48 18 11 13 9 2 1 0 0
172 224 309 280 255 340 297 327 363 294 155 60 51 90 85 54 89 0 0 0 0 0 0 0 0 0 0 0 63 19 0 21 93 84 96 87 60 35 22 24 16 12 12
155 154 138 153 295 250 270 327 302 293 309 212 99 40 213 204 206 98 9 0 0 0 0 0 0 0 0 0 2 4 0 0 1 68 54 53 43 68 79 72 68 58 42
75 75 112 93 158 331 279 394 390 383 351 260 325 221 122 170 249 165 186 0 0 0 0 0 0 0 0 0 0 0 0 0 0 0 11 6 0 0 0 8 32 52 51
44 125 115 101 96 180 232 287 312 394 342 327 315 358 304 172 105 71 37 177 59 0 0 0 0 0 10 28 0 0 0 0 0 0 0 0 0 0 0 0 0 1 20
30 112 132 157 170 170 130 183 323 359 400 336 442 422 283 282 233 138 131 49 58 5 3 0 0 0 0 31 1 0 0 0 0 0 0 0 0 0 0 0 0 0 0
21 70 164 148 156 115 81 170 187 183 197 295 380 425 336 224 291 259 115 71 95 6 10 1 0 0 0 0 0 0 0 0 0 0 0 0 0 0 0 0 0 0 0
55 95 93 124 136 160 178 136 78 53 134 96 252 290 315 299 202 276 266 209 194 106 13 5 0 0 0 0 0 0 0 0 0 0 0 0 0 0 0 0 0 0 0
82 71 100 59 55 38 41 114 73 51 94 163 168 219 276 281 326 333 253 153 77 75 11 25 1 0 0 0 0 0 0 0 0 0 0 0 0 0 0 0 0 0 0
43 37 1 10 24 22 36 44 93 106 112 154 230 267 191 280 385 408 273 234 81 5 3 13 0 0 0 0 0 0 0 0 0 0 0 0 0 0 0 0 0 0 0
46 68 94 2 7 12 32 37 44 61 132 119 132 175 157 139 250 341 226 29 7 0 0 0 0 0 0 0 0 0 0 0 0 0 0 0 0 0 0 0 0 0 0
216 110 93 89 73 50 78 64 54 87 121 133 149 170 185 218 282 15 0 0 1 0 0 0 0 0 0 0 0 0 0 0 0 0 0 0 0 0 0 0 0 0 0
213 104 42 72 159 130 133 150 144 168 150 127 164 187 201 202 98 2 0 0 0 0 0 0 0 0 0 0 0 0 0 0 0 0 0 0 0 0 0 0 0 0 0
196 198 224 238 244 209 149 219 188 210 210 159 81 137 72 15 3 0 2 0 0 0 0 0 0 0 0 0 0 0 0 0 0 0 0 0 0 0 0 0 0 0 0
210 223 153 154 181 86 0 0 0 234 121 111 65 63 2 0 0 0 0 0 0 0 0 0 0 0 0 0 0 0 0 0 0 0 0 0 0 0 0 0 0 0 0
221 201 175 175 162 181 0 0 0 3 81 216 60 9 4 0 0 0 1 1 1 0 0 0 0 0 0 0 0 0 0 0 0 0 0 0 0 0 0 0 0 0 0
236 202 195 161 164 166 21 0 0 0 15 68 64 56 19 0 0 0 0 0 0 0 0 0 0 0 0 0 0 0 0 0 0 0 0 0 0 0 0 0 0 0 0
279 310 254 185 112 180 1 0 0 0 0 1 0 0 1 0 0 1 0 1 0 1 1 2 1 1 0 0 0 0 0 0 0 0 0 0 0 0 0 0 0 0 0
357 199 0 0 0 0 0 0 1 1 0 0 0 0 0 1 0 0 0 0 0 1 1 1 1 0 0 0 0 0 0 0 0 0 0 0 0 0 0 0 0 0 0

GFSMA_con_sbcape_069.txt.gz
CAPE
8 0 0 0 0 0 0 0 0 0 0 0 0 0 0 0 0 0 0 15 23 27 12 13 7 5 3 1 3 1 0 0 0 0 0 0 0 0 0 0 0 0 0
0 0 0 0 0 0 0 0 0 0 0 0 0 0 0 0 0 0 0 3 14 24 18 8 6 4 3 0 1 1 0 0 0 0 0 0 0 0 0 0 0 0 0
0 0 0 0 0 0 0 0 0 0 0 0 0 0 0 0 0 0 0 0 0 6 12 15 10 6 4 2 0 0 1 0 0 0 0 0 0 0 0 0 0 0 0
7 0 0 0 0 0 0 0 0 0 0 0 0 0 0 0 0 0 0 0 0 0 0 5 10 10 6 5 4 3 2 1 4 0 0 0 0 0 0 0 0 0 0
20 14 2 0 0 0 0 0 0 0 0 0 0 0 0 0 0 0 0 0 0 0 0 0 2 1 14 17 11 12 11 6 3 6 2 0 0 0 0 0 0 0 0
0 8 41 29 44 7 0 0 0 0 0 0 0 0 0 0 0 0 0 0 0 0 0 0 0 0 0 15 28 18 14 14 14 12 11 8 2 0 0 0 0 0 0
0 9 19 26 12 58 5 0 3 1 0 0 0 0 0 0 0 0 0 0 0 0 0 0 0 0 0 0 12 22 26 21 20 10 13 9 10 6 0 0 0 0 0
0 0 16 25 1 27 25 0 0 0 0 0 0 0 0 0 0 0 0 0 0 0 0 0 0 0 0 0 0 14 16 43 32 24 16 18 12 17 7 2 0 0 0
0 0 5 4 0 1 0 0 0 0 0 0 0 0 0 0 0 0 0 0 0 0 0 0 0 0 0 0 0 0 0 0 33 55 49 30 19 14 17 13 8 2 3
0 0 0 0 0 15 12 20 17 1 1 0 0 1 6 9 0 0 0 0 0 0 0 0 0 0 0 0 0 0 0 0 0 6 56 95 63 38 35 22 46 18 22
0 0 1 0 2 20 38 55 66 47 25 0 0 5 0 2 8 0 0 0 0 0 0 0 0 0 0 0 0 0 0 0 0 0 0 56 127 119 90 81 75 90 83
0 0 0 31 44 26 70 58 61 57 52 44 9 19 9 4 0 8 1 0 0 0 0 0 0 0 0 0 0 0 0 0 0 0 0 4 44 111 88 104 127 75 99
0 0 1 9 32 35 33 50 31 33 28 35 35 58 57 55 32 17 11 0 0 0 0 0 0 0 0 0 0 0 0 0 0 0 0 0 0 2 23 46 58 65 61
0 0 0 13 11 9 12 36 21 20 36 41 36 21 23 24 50 52 29 24 1 1 0 0 0 0 0 0 0 0 0 0 0 0 0 0 0 0 0 0 0 2 5
0 0 0 0 6 2 1 17 14 11 25 28 20 11 17 2 20 36 34 27 35 12 2 0 0 0 0 0 0 0 0 0 0 0 0 0 0 0 0 0 0 0 0
0 0 0 0 0 1 6 17 16 0 2 7 8 0 1 0 6 10 5 20 28 31 11 0 0 0 0 0 0 0 0 0 0 0 0 0 0 0 0 0 0 0 0
0 0 0 0 0 0 3 6 6 2 0 0 0 0 0 3 9 9 15 23 23 21 12 0 0 0 0 0 0 0 0 0 0 0 0 0 0 0 0 0 0 0 0
0 0 0 0 0 0 0 0 0 1 0 0 0 0 0 0 0 0 0 6 9 0 2 2 0 0 0 0 0 0 0 0 0 0 0 0 0 0 0 0 0 0 0
0 0 0 0 0 0 0 0 0 0 0 0 0 0 0 0 0 0 0 0 0 0 1 13 0 2 2 0 0 0 0 0 0 0 0 0 0 0 0 0 0 0 0
1 0 0 0 0 0 0 0 0 0 0 0 0 0 0 0 0 0 0 0 0 0 2 18 32 12 0 0 0 0 0 0 0 0 0 0 0 0 0 0 0 0 0
2 1 0 0 0 0 0 2 0 0 0 0 0 0 0 0 0 0 2 6 10 14 22 41 37 3 1 0 0 0 0 0 0 0 0 1 0 0 0 0 0 0 1
2 2 2 0 0 0 0 0 0 0 0 0 0 0 0 0 0 0 0 0 2 12 15 34 17 2 0 0 0 0 0 0 0 0 0 0 0 0 0 0 0 7 3
10 4 12 26 14 1 0 0 0 0 0 0 0 0 0 0 0 0 0 0 0 1 1 0 2 0 0 0 0 0 0 0 0 1 0 0 0 1 3 5 2 3 0
36 44 50 35 37 35 3 0 0 0 0 0 0 3 13 12 0 0 1 0 0 0 0 0 0 1 0 0 0 0 0 0 0 1 2 0 2 0 1 1 0 0 0
33 31 37 16 23 37 0 0 0 0 0 0 0 0 0 1 1 1 0 0 0 0 2 3 3 1 1 1 0 0 0 0 0 0 4 0 0 0 0 0 0 0 0
16 3 0 0 0 0 0 1 0 0 1 0 0 0 0 0 0 0 0 0 0 0 0 0 0 0 0 1 1 0 0 0 0 0 0 0 0 0 0 0 0 0 0

GFSMA_con_sbcape_072.txt.gz
CAPE
25 1 1 0 0 0 0 0 0 0 0 0 0 0 0 0 0 0 0 14 21 16 10 11 8 9 8 5 3 2 1 0 0 0 0 0 0 0 0 0 0 0 0
0 0 0 0 0 0 0 0 0 0 0 0 0 0 0 0 0 0 0 0 10 16 19 9 8 6 6 4 2 1 0 0 0 0 0 0 0 0 0 0 0 0 0
0 0 0 0 0 0 0 0 0 0 0 0 0 0 0 0 0 0 0 0 0 4 8 18 14 7 4 3 3 0 0 0 0 0 0 0 0 0 0 0 0 0 0
0 0 0 0 0 0 0 0 0 0 0 0 0 0 0 0 0 0 0 0 0 0 0 10 15 10 4 1 1 1 0 0 0 0 0 0 0 0 0 0 0 0 0
0 0 0 0 0 0 0 0 0 0 0 0 0 0 0 0 0 0 0 0 0 0 0 0 0 3 5 3 2 2 2 4 3 1 0 0 0 0 0 0 0 0 0
0 0 0 0 0 0 0 0 0 0 0 0 0 0 0 0 0 0 0 0 0 0 0 0 0 0 0 1 12 7 10 13 8 6 6 1 0 0 0 0 0 0 0
0 0 0 0 0 0 0 0 0 0 0 0 0 0 0 0 0 0 0 0 0 0 0 0 0 0 0 0 10 13 17 17 15 12 8 10 5 0 0 0 0 0 0
0 0 0 5 14 0 0 0 0 0 0 0 0 0 0 0 0 0 0 0 0 0 0 0 0 0 0 0 0 20 37 56 37 20 21 23 17 12 2 1 0 0 0
0 10 1 14 21 33 5 0 0 0 0 0 0 0 0 0 0 0 0 0 0 0 0 0 0 0 0 0 0 0 0 0 94 275 134 27 18 11 8 0 1 2 2
0 0 9 6 7 41 17 0 0 0 0 0 0 0 0 0 0 0 0 0 0 0 0 0 0 0 0 0 0 0 0 0 0 15 182 142 84 39 34 25 23 17 7
0 0 0 1 0 18 1 0 11 0 0 0 0 0 0 0 0 0 0 0 0 0 0 0 0 0 0 0 0 0 0 0 0 0 0 119 188 133 98 81 72 80 62
0 0 0 0 0 1 1 0 0 0 0 0 0 0 0 0 0 0 0 0 0 0 0 0 0 0 0 0 0 0 0 0 0 0 0 0 39 123 171 171 154 137 127
0 0 0 0 0 0 3 1 0 3 14 30 20 2 16 0 0 0 1 0 0 0 0 0 0 0 0 0 0 0 0 0 0 0 0 0 0 5 70 118 180 201 180
0 0 0 0 0 0 1 22 7 5 32 40 57 48 51 40 24 22 5 2 2 0 0 0 0 0 0 0 0 0 0 0 0 0 0 0 0 0 0 7 45 99 148
0 0 0 1 0 7 11 16 22 40 33 17 23 36 42 28 34 25 12 3 18 5 0 0 0 0 0 0 0 0 0 0 0 0 0 0 0 0 0 0 0 3 33
0 0 0 0 0 0 3 15 17 14 19 12 11 15 12 0 7 6 15 14 12 19 10 0 0 0 0 0 0 0 0 0 0 0 0 0 0 0 0 0 0 0 0
0 0 0 0 0 0 0 0 4 1 1 6 4 1 0 0 0 3 1 6 1 1 11 1 0 0 0 0 0 0 0 0 0 0 0 0 0 0 0 0 0 0 0
0 0 0 0 0 0 0 0 1 1 0 0 0 0 1 0 0 0 0 0 1 2 6 4 0 0 0 0 0 0 0 0 0 0 0 0 0 0 0 0 0 0 0
0 0 0 0 0 0 0 0 0 0 0 0 0 0 0 0 0 0 0 0 0 0 0 0 0 0 0 0 0 0 0 0 0 0 0 0 0 0 0 0 0 0 0
1 0 0 0 0 0 0 0 0 0 0 0 0 0 0 0 0 0 0 0 0 0 0 0 0 0 0 0 0 0 0 0 0 0 0 0 0 0 0 0 0 0 0
1 0 0 0 0 0 0 0 0 0 0 0 0 0 0 0 0 0 0 0 0 0 0 0 1 2 1 0 0 0 0 0 0 0 0 0 0 0 0 0 1 1 1
0 0 1 1 0 0 0 0 0 0 0 0 0 0 0 0 0 0 0 0 0 0 0 0 1 2 0 0 0 0 0 1 0 0 0 0 0 0 1 0 1 1 2
0 0 0 0 0 0 0 0 0 0 0 3 3 2 0 0 0 0 0 0 0 0 0 0 1 0 1 1 0 0 0 0 0 0 0 0 0 1 2 2 1 1 3
0 0 1 0 1 3 0 0 0 0 0 0 0 1 0 0 0 0 0 0 0 0 0 0 0 0 1 0 0 0 0 0 0 0 0 0 1 1 4 2 6 4 5
0 0 0 0 0 1 0 0 0 0 0 0 0 0 0 0 0 0 0 0 2 0 3 5 4 3 2 1 0 0 0 0 0 0 2 0 0 0 0 0 0 3 0
1 2 1 1 2 1 1 1 0 0 0 0 0 0 0 0 0 1 1 0 0 0 0 0 0 0 0 1 1 0 0 0 0 0 0 0 0 0 0 0 0 0 0

GFSMA_con_sbcape_075.txt.gz
CAPE
55 140 31 0 1 0 0 0 0 0 0 0 0 0 0 0 0 0 0 24 25 23 22 23 18 15 14 9 8 6 4 4 5 3 2 3 2 0 0 0 0 0 0
133 95 15 0 0 0 0 0 0 0 0 0 0 0 0 0 0 0 0 2 14 26 22 19 16 13 9 6 4 3 3 0 1 1 0 0 0 0 0 0 0 0 0
115 41 12 0 0 0 0 0 0 0 0 0 0 0 0 0 0 0 0 0 2 12 18 17 16 8 9 4 3 2 1 0 0 0 0 0 0 0 0 0 0 0 0
79 11 0 0 0 0 0 0 0 0 0 0 0 0 0 0 0 0 0 0 0 0 7 11 17 15 7 7 4 2 1 0 0 0 0 0 0 0 0 0 0 0 0
0 0 0 0 0 0 0 0 0 0 0 0 0 0 0 0 0 0 0 0 0 0 0 5 9 10 10 6 5 4 3 2 0 0 0 0 0 0 0 0 0 0 0
0 0 0 0 0 0 0 0 0 0 0 0 0 0 0 0 0 0 0 0 0 0 0 0 0 0 1 8 4 5 8 10 6 3 2 0 0 0 0 0 0 0 0
0 0 0 0 0 0 0 0 0 0 0 0 0 0 0 0 0 0 0 0 0 0 0 0 0 0 0 0 6 6 7 8 13 12 15 12 4 0 0 0 0 0 0
0 0 0 0 0 0 0 0 0 0 0 0 0 0 0 0 0 0 0 0 0 0 0 0 0 0 0 0 0 10 17 46 50 43 30 25 30 8 1 1 0 0 0
1 0 0 0 0 0 0 0 0 0 0 0 0 0 0 0 0 0 0 0 0 0 0 0 0 0 0 0 0 0 0 0 114 316 267 119 22 9 7 4 1 0 1
1 0 0 10 18 1 5 2 0 0 0 0 0 0 0 0 1 0 0 0 0 0 1 1 0 0 0 0 0 0 0 0 0 34 243 308 173 55 14 8 14 14 11
0 0 0 0 1 15 19 22 0 0 0 5 0 0 0 0 0 0 0 0 0 0 5 0 0 0 0 0 0 0 0 0 0 0 3 85 251 278 131 66 47 68 67
1 0 0 0 0 0 0 11 7 5 0 0 0 0 0 0 1 1 0 0 0 0 0 0 0 0 0 0 0 0 0 0 0 0 0 0 16 95 189 219 156 129 124
0 0 0 0 0 0 1 0 8 11 2 1 0 0 0 0 0 7 0 0 0 0 0 0 0 0 0 0 0 0 0 0 0 0 0 0 0 2 32 81 151 231 211
0 0 0 0 0 0 0 0 0 1 0 0 0 0 0 0 5 10 1 1 0 0 0 0 0 0 0 0 0 0 0 0 0 0 0 0 0 0 0 3 16 54 112
0 0 0 0 0 0 0 0 0 0 0 0 5 0 0 3 34 35 38 31 27 17 1 0 0 0 0 0 0 0 0 0 0 0 0 0 0 0 0 0 0 0 11
0 0 0 0 0 0 0 0 0 1 2 2 2 2 20 23 33 47 54 39 24 29 20 2 0 0 0 0 0 0 0 0 0 0 0 0 0 0 0 0 0 0 0
0 0 0 0 0 0 0 0 0 0 0 5 4 5 14 28 35 37 21 19 3 4 8 0 0 0 0 0 0 0 0 0 0 0 0 0 0 0 0 0 0 0 0
0 0 0 0 0 0 0 0 0 1 2 6 17 14 17 17 12 15 5 3 2 3 7 6 0 0 0 0 0 0 0 0 0 0 0 0 0 0 0 0 0 0 0
0 0 0 0 0 0 0 0 1 0 0 2 2 10 2 2 0 0 0 0 0 0 0 2 0 0 0 0 0 0 0 0 0 0 0 0 0 0 0 0 0 0 0
0 0 0 0 0 0 0 0 0 0 0 0 0 0 0 1 1 0 0 0 0 0 0 0 0 0 0 0 0 0 0 0 0 0 0 0 0 0 0 0 0 0 0
0 0 0 0 0 0 0 0 0 0 0 0 0 0 0 0 0 0 0 0 0 0 0 0 0 0 0 0 0 0 0 0 0 0 0 0 0 0 0 0 0 0 0
0 0 0 0 0 0 0 0 0 0 0 0 0 0 0 0 0 0 0 0 0 0 0 0 0 0 0 0 0 1 0 0 0 0 1 1 0 0 0 0 0 1 2
0 0 0 0 0 0 0 0 0 0 0 0 0 0 0 0 0 0 0 0 0 0 0 0 0 0 0 0 1 2 0 0 0 0 0 0 0 0 1 2 2 3 2
2 4 1 0 0 0 0 0 0 0 0 0 0 0 0 0 0 0 0 0 0 0 0 0 0 0 0 0 0 0 0 0 0 0 0 0 0 0 1 1 5 6 6
3 2 3 1 1 1 1 0 1 1 0 0 0 0 0 0 0 1 0 0 1 0 2 2 0 1 0 1 0 0 0 0 0 0 0 0 0 0 0 0 1 6 5
3 1 2 1 0 1 1 1 0 0 1 0 4 1 2 1 1 0 1 0 0 1 0 0 0 0 1 1 2 0 0 0 0 0 0 0 0 0 0 1 1 0 0

GFSMA_con_sbcape_078.txt.gz
CAPE
44 92 77 23 28 0 0 0 0 0 0 0 0 0 0 0 0 0 1 14 27 38 24 24 19 15 13 14 13 10 9 9 9 7 6 6 3 3 2 2 1 0 0
0 48 49 19 0 0 0 0 0 0 0 0 0 0 0 0 0 0 0 7 16 27 30 16 22 14 12 10 10 10 6 5 6 4 4 3 1 0 0 0 0 0 0
1 86 59 15 0 0 0 0 0 0 0 0 0 0 0 0 0 0 0 0 6 13 22 35 25 16 10 11 11 8 5 3 3 3 1 0 0 0 0 0 0 0 0
101 154 75 12 0 0 0 0 0 0 0 0 0 0 0 0 0 0 0 0 0 0 6 22 30 28 10 8 7 7 5 2 1 1 0 0 0 0 0 0 0 0 0
7 92 20 0 0 0 0 0 0 0 0 0 0 0 0 0 0 0 0 0 0 0 0 5 11 13 15 10 7 9 6 2 1 1 0 0 0 0 0 0 0 0 0
24 9 1 0 0 0 0 0 0 0 0 0 0 0 0 0 0 0 0 0 0 0 0 0 1 1 3 12 9 11 13 9 4 2 2 0 0 0 0 0 0 0 0
27 0 0 0 0 0 0 0 0 0 0 0 0 0 0 0 0 0 0 0 0 0 0 0 0 0 0 8 15 10 16 11 11 12 14 8 2 0 0 0 0 0 0
0 1 0 0 0 0 0 0 0 0 0 0 0 0 0 0 0 0 0 0 0 0 0 0 0 0 0 0 0 10 16 22 28 26 19 21 11 2 0 0 0 0 0
1 0 0 0 0 0 0 0 0 0 0 0 0 0 0 0 0 0 0 0 0 0 0 0 0 0 0 0 0 0 0 0 100 266 264 98 22 12 4 0 0 0 0
1 0 0 0 0 0 0 0 0 0 0 0 0 0 0 0 2 0 0 0 0 0 0 0 3 3 1 0 0 0 0 0 0 26 211 325 276 156 55 31 7 0 0
0 0 0 0 0 0 0 6 0 0 0 0 0 0 0 0 0 0 0 0 0 0 0 0 0 6 3 2 0 0 0 0 0 0 13 115 263 368 295 187 79 56 52
2 0 0 0 0 3 15 23 5 0 0 0 1 4 4 0 0 0 0 0 0 0 0 0 2 9 15 15 7 5 0 0 0 0 0 2 59 142 223 329 314 199 124
0 3 1 3 0 0 0 6 18 10 3 8 6 5 2 2 4 4 0 0 0 0 0 0 0 2 0 3 5 0 0 0 0 0 0 0 0 3 49 105 159 288 328
1 0 3 0 1 0 0 0 0 6 5 2 0 0 0 0 0 0 2 8 6 0 0 0 0 0 0 0 0 0 0 0 0 0 0 0 0 0 0 2 22 56 100
0 0 0 0 1 1 0 2 27 19 0 0 0 2 5 0 0 0 0 1 14 2 0 0 0 0 0 0 0 0 0 0 0 0 0 0 0 0 0 0 0 0 6
0 0 0 0 0 0 0 1 3 1 5 0 0 0 0 0 0 0 0 4 0 5 0 0 0 0 0 0 0 0 0 0 0 0 0 0 0 0 0 0 0 0 0
0 0 0 0 0 0 0 0 0 0 0 0 0 0 1 0 0 0 0 2 9 23 19 16 3 0 0 0 0 0 0 0 0 0 0 0 0 0 0 0 0 0 0
0 0 0 0 0 0 0 0 0 0 0 0 0 0 1 0 0 0 2 9 10 23 35 13 5 0 0 0 0 0 0 0 0 0 0 0 0 0 0 0 0 0 0
0 0 0 0 0 0 0 0 0 0 0 0 0 1 1 2 1 2 4 4 5 8 6 3 1 5 0 0 0 0 0 0 0 0 0 0 0 0 0 0 0 0 0
0 0 0 0 0 0 0 0 0 0 0 0 0 0 2 0 0 4 11 3 1 2 3 2 2 3 1 0 0 0 0 0 0 0 0 0 0 0 0 0 0 0 0
0 0 0 0 0 0 0 0 0 0 0 0 0 0 0 0 0 0 1 1 1 0 0 0 0 0 0 0 0 0 0 0 0 0 0 0 0 0 0 0 0 0 0
0 0 0 0 0 0 0 0 0 0 0 0 0 0 0 0 0 0 0 0 0 1 0 0 0 0 0 0 0 0 0 0 0 0 0 0 0 0 0 0 0 0 0
0 2 0 0 0 0 0 0 0 0 0 0 0 0 0 0 0 0 0 0 0 0 0 0 0 0 0 0 0 0 0 0 0 0 1 0 0 0 1 1 0 0 0
1 2 0 1 0 1 1 0 0 0 0 0 0 0 0 0 0 1 0 0 0 0 0 0 0 0 0 1 0 0 0 0 0 0 0 0 0 0 1 2 6 5 5
1 2 1 2 1 2 2 0 0 0 2 2 2 1 0 0 0 0 0 0 0 0 2 3 3 4 5 4 1 0 1 0 0 0 0 0 0 1 1 1 0 8 9
2 2 2 2 2 2 4 2 0 0 0 0 0 0 0 1 1 0 0 0 0 0 0 0 0 0 0 1 2 0 0 0 0 0 0 0 0 0 0 3 1 3 2

GFSMA_con_sbcape_081.txt.gz
CAPE
208 210 218 223 47 3 46 204 80 16 0 0 0 0 0 0 0 2 10 17 36 44 35 37 42 31 16 16 13 8 11 9 10 9 6 5 4 3 3 3 1 1 1
237 261 252 259 122 0 18 126 58 1 0 0 0 0 0 0 0 0 7 24 26 48 51 41 35 25 15 21 15 9 8 8 9 5 8 4 3 3 2 2 0 0 0
59 158 225 206 156 1 0 24 6 0 0 0 0 0 0 0 0 0 14 21 18 22 42 46 25 10 10 14 14 8 5 6 6 6 7 4 2 1 2 0 0 0 0
61 184 171 141 52 1 0 3 0 0 1 0 0 1 0 0 0 12 6 12 19 5 13 20 29 26 20 13 19 13 7 4 5 5 3 4 0 0 0 0 0 0 0
22 98 120 106 29 0 0 0 0 1 4 5 0 0 0 1 5 9 6 8 16 19 29 14 16 19 21 20 17 18 10 5 6 6 2 1 1 0 0 0 0 0 0
8 93 32 1 1 1 1 0 0 4 17 12 0 0 4 4 9 11 14 4 9 15 21 23 19 15 13 22 20 17 16 11 7 4 4 2 1 0 0 0 0 0 0
24 4 2 0 0 0 0 0 0 0 4 16 3 6 11 6 5 3 11 10 3 9 9 8 9 11 6 8 20 16 12 16 15 10 7 5 4 1 0 0 0 0 0
12 21 0 0 1 0 5 0 0 0 0 1 2 5 8 6 6 5 4 16 13 3 6 2 1 1 1 2 4 7 7 19 27 22 11 17 8 1 0 0 0 0 0
6 2 0 0 0 2 1 0 0 0 0 2 0 18 9 33 7 10 6 11 10 7 1 0 1 3 8 8 4 6 4 0 83 200 222 97 21 4 0 0 0 0 0
2 1 0 0 0 0 0 0 0 0 0 0 2 0 53 27 82 32 1 2 2 4 6 0 2 6 8 17 21 18 9 0 0 53 203 287 257 176 103 38 7 3 0
6 3 2 0 0 0 0 0 0 0 0 18 11 11 3 5 52 76 59 2 2 0 0 16 20 22 13 19 39 28 0 0 0 0 23 98 217 311 281 237 153 126 71
4 3 1 0 0 0 0 0 0 0 0 12 9 23 28 40 21 61 60 80 79 39 17 36 25 14 12 13 17 12 4 0 0 0 0 5 36 113 204 334 400 344 259
4 1 1 0 0 0 0 0 0 1 13 37 66 46 59 62 60 69 75 42 96 84 21 52 29 19 14 41 45 11 3 0 0 0 0 0 0 6 38 111 192 308 386
8 1 1 0 0 0 0 0 0 18 39 33 57 106 80 52 33 27 51 73 59 49 18 14 13 40 27 35 29 4 4 0 0 0 0 0 0 0 0 0 9 43 95
7 2 2 2 1 0 0 0 0 0 0 4 13 33 43 11 6 9 5 35 34 64 40 24 32 7 2 12 9 26 2 0 0 0 0 0 0 0 0 0 0 0 1
32 4 2 1 2 2 0 0 0 0 0 1 2 14 19 28 1 0 2 1 0 22 41 29 9 82 18 0 0 0 0 0 0 0 0 0 0 0 0 0 0 0 0
2 4 1 5 4 2 1 10 6 9 6 25 30 18 12 2 3 4 4 0 0 0 1 8 22 20 3 0 9 0 0 0 0 0 0 0 0 0 0 0 0 0 0
5 0 0 8 10 2 8 7 6 11 0 8 1 5 1 0 0 0 0 0 0 0 44 45 18 26 14 16 16 42 27 0 0 0 0 0 0 0 0 0 0 0 0
5 9 8 5 4 12 1 1 2 1 1 2 3 2 5 9 40 4 1 0 0 0 1 12 20 9 14 8 19 4 50 94 31 0 0 0 0 0 0 0 0 0 0
0 1 1 1 3 10 8 5 1 3 3 1 5 1 0 0 0 2 10 9 50 100 81 17 11 5 8 55 64 52 52 25 3 0 0 0 0 0 0 0 0 0 0
0 0 0 3 5 1 0 0 1 1 0 1 7 7 2 3 0 27 72 85 55 24 13 13 9 14 25 47 13 2 1 0 5 42 36 26 26 15 7 0 0 0 0
0 0 1 0 0 0 0 0 0 10 3 3 6 3 0 0 0 0 0 0 0 4 1 2 2 1 0 0 0 0 0 0 0 1 7 10 29 12 0 1 0 0 0
0 0 1 1 0 0 0 0 0 0 0 2 2 1 0 0 0 0 0 0 0 0 0 0 0 0 0 1 1 0 0 0 0 0 1 0 0 1 5 6 4 3 2
1 3 2 2 1 2 1 0 0 0 1 0 1 0 0 0 0 0 0 0 1 0 1 1 1 1 1 1 1 2 1 0 0 0 0 0 1 2 3 1 7 7 7
1 4 3 3 2 4 3 0 0 1 2 3 3 2 2 2 1 0 0 0 0 1 2 5 5 5 6 4 1 0 0 0 0 0 1 0 0 1 2 1 4 14 14
2 2 3 4 3 4 4 0 1 3 3 3 2 3 4 3 1 0 1 0 0 1 1 1 2 0 2 3 3 2 3 1 1 0 1 3 3 4 3 6 7 8 7

GFSMA_con_sbcape_084.txt.gz
CAPE
467 203 139 332 415 201 165 204 573 417 317 214 192 145 77 24 20 27 29 17 35 62 15 18 32 35 23 22 12 14 13 11 8 8 8 8 5 4 4 3 2 3 2
415 242 305 458 250 84 114 128 298 288 263 210 213 123 25 10 11 11 11 12 23 45 53 35 44 32 12 12 10 12 9 12 11 8 6 5 3 4 3 1 1 0 0
520 414 495 441 195 184 77 104 271 325 177 172 161 90 21 11 8 6 11 30 27 24 39 50 51 31 13 12 12 9 13 17 16 9 7 7 4 4 2 2 1 0 0
67 143 269 395 236 115 152 99 301 180 170 162 96 79 21 6 6 4 13 41 18 19 32 41 42 32 30 12 11 11 9 14 13 13 9 8 3 2 3 1 0 0 0
29 112 468 460 195 82 201 40 197 191 171 143 99 62 23 19 10 18 14 40 30 11 35 18 17 23 28 27 14 10 8 9 9 14 12 8 4 1 1 0 0 0 0
40 222 184 201 71 65 18 29 141 193 185 138 59 45 60 28 18 22 17 39 41 31 42 27 21 16 12 25 22 10 12 10 8 10 9 3 1 1 0 0 0 0 0
7 48 72 68 8 6 3 4 165 175 145 144 87 72 49 9 37 20 18 35 31 29 30 38 27 17 5 10 21 10 13 11 11 8 5 3 3 3 1 0 0 0 0
143 67 31 15 2 3 1 0 125 149 152 134 84 56 32 32 17 27 20 31 36 33 29 18 13 11 6 3 4 13 12 12 14 12 2 3 3 0 0 0 0 0 0
39 35 39 2 2 1 0 0 110 157 150 151 149 60 25 27 42 53 46 24 26 24 19 33 33 30 18 3 0 1 2 7 59 134 107 20 1 1 0 0 0 0 0
18 1 8 1 2 1 2 1 35 137 126 133 134 97 47 26 62 69 91 74 43 16 33 14 10 9 3 17 13 1 0 0 0 39 184 269 200 101 53 20 6 0 5
5 3 1 1 1 2 2 1 51 174 169 159 77 117 129 123 100 75 75 89 94 78 85 70 47 53 31 35 51 36 0 0 0 0 16 121 275 340 327 273 179 118 74
10 5 1 1 2 1 2 2 77 128 100 153 101 162 117 112 100 115 93 119 117 139 141 122 151 109 109 97 46 16 1 0 0 0 2 28 73 146 209 257 334 334 307
5 9 6 4 2 2 1 0 7 34 68 138 139 170 48 75 99 111 107 70 71 128 142 157 148 120 105 137 88 18 7 0 0 0 0 2 18 35 56 85 135 212 287
4 2 1 4 5 4 6 4 0 10 40 126 109 139 138 118 128 137 77 39 51 89 111 140 128 203 186 156 196 76 78 0 0 0 0 0 0 0 0 0 0 8 51
47 8 4 1 0 0 1 1 0 1 16 73 167 177 111 120 87 89 74 68 60 83 77 146 82 107 202 212 146 175 133 33 0 0 0 0 0 0 0 0 0 0 0
27 33 8 4 1 1 0 0 0 7 2 7 14 21 49 67 91 95 91 61 58 32 30 49 103 65 99 30 21 41 65 52 0 0 0 0 0 0 0 0 0 0 0
20 31 5 3 2 1 0 0 0 0 10 14 2 0 0 4 33 33 39 17 12 13 18 6 9 16 110 53 26 29 6 9 5 0 0 0 0 0 0 0 0 0 0
31 31 23 4 4 2 1 0 0 0 0 0 0 1 0 2 3 11 17 6 11 21 16 14 6 2 0 0 11 4 0 0 33 14 0 0 0 0 0 0 0 0 0
22 26 26 38 23 7 7 1 0 0 2 0 0 0 0 0 3 9 3 18 17 8 1 2 1 2 2 1 18 93 79 143 158 4 0 0 0 0 0 0 0 0 0
5 20 15 9 12 27 19 6 4 3 2 2 1 4 0 10 10 8 13 15 8 22 18 39 56 94 96 25 90 90 117 175 168 76 9 1 0 0 0 0 0 0 0
24 25 27 17 11 19 0 0 26 28 27 29 46 54 69 40 38 37 37 45 91 73 17 45 83 67 118 143 84 67 56 43 19 9 21 32 37 86 0 1 0 0 0
0 0 0 0 1 0 0 0 0 0 33 41 37 37 36 3 0 0 0 0 0 1 27 12 10 7 3 2 0 0 2 1 0 0 0 0 1 3 4 5 4 2 1
1 1 1 1 0 0 0 0 0 0 1 0 0 0 0 0 0 0 0 0 0 0 0 0 0 0 0 1 2 1 0 0 0 0 0 0 0 0 2 4 5 4 3
3 3 2 2 1 1 0 0 0 1 2 3 2 1 1 1 0 1 1 1 2 2 2 2 2 2 3 2 1 2 2 1 0 0 0 0 1 3 3 4 8 8 8
4 2 3 2 1 4 0 0 0 1 2 3 3 4 1 1 0 0 1 2 2 3 4 5 5 4 4 3 1 0 1 1 1 1 2 1 3 3 4 6 10 9 8
3 4 4 4 3 3 1 1 0 2 2 4 4 5 4 4 1 0 0 1 1 2 1 1 2 1 2 2 2 8 5 4 3 4 6 9 10 9 9 11 13 13 13